Time,TemperatureF,DewpointF,PressureIn,WindDirection,WindDirectionDegrees,WindSpeedMPH,WindSpeedGustMPH,Humidity,HourlyPrecipIn,Conditions,Clouds,dailyrainin,SoftwareType,DateUTC
2013-03-04 00:21:00,56.0,52.0,30.11,SSE,150,4.0,6.0,87,0.00,,,-99.99,,2013-03-04 08:21:00,
2013-03-04 00:31:00,56.0,52.0,30.11,SSE,150,4.0,6.0,87,0.00,,,-99.99,,2013-03-04 08:31:00,
2013-03-04 00:41:00,56.0,52.0,30.11,SSE,150,4.0,6.0,87,0.00,,,-99.99,,2013-03-04 08:41:00,
2013-03-04 00:51:00,56.0,52.0,30.11,SE,140,3.0,5.0,87,0.00,,,-99.99,,2013-03-04 08:51:00,
2013-03-04 01:21:00,56.0,52.0,30.11,SE,140,3.0,5.0,87,0.00,,,-99.99,,2013-03-04 09:21:00,
2013-03-04 01:31:00,56.0,52.0,30.11,SE,140,3.0,5.0,87,0.00,,,-99.99,,2013-03-04 09:31:00,
2013-03-04 01:42:00,56.0,52.0,30.11,SE,140,3.0,5.0,87,0.00,,,-99.99,,2013-03-04 09:42:00,
2013-03-04 01:51:00,56.0,52.0,30.11,North,0,0.0,2.0,86,0.00,,,-99.99,,2013-03-04 09:51:00,
2013-03-04 02:21:00,56.0,52.0,30.11,North,0,0.0,2.0,86,0.00,,,-99.99,,2013-03-04 10:21:00,
2013-03-04 02:31:00,56.0,52.0,30.11,North,0,0.0,2.0,86,0.00,,,-99.99,,2013-03-04 10:31:00,
2013-03-04 02:42:00,56.0,52.0,30.11,North,0,0.0,2.0,86,0.00,,,-99.99,,2013-03-04 10:42:00,
2013-03-04 02:51:00,56.0,52.0,30.11,North,-999,0.0,0.0,86,0.00,,,-99.99,,2013-03-04 10:51:00,
2013-03-04 03:21:00,56.0,52.0,30.11,North,-999,0.0,0.0,86,0.00,,,-99.99,,2013-03-04 11:21:00,
2013-03-04 03:31:00,56.0,52.0,30.11,North,-999,0.0,0.0,86,0.00,,,-99.99,,2013-03-04 11:31:00,
2013-03-04 03:41:00,56.0,52.0,30.11,North,-999,0.0,0.0,86,0.00,,,-99.99,,2013-03-04 11:41:00,
2013-03-04 03:51:00,56.0,52.0,30.10,North,-999,0.0,0.0,85,0.00,,,-99.99,,2013-03-04 11:51:00,
2013-03-04 04:22:00,56.0,52.0,30.10,North,-999,0.0,0.0,85,0.00,,,-99.99,,2013-03-04 12:22:00,
2013-03-04 04:32:00,56.0,52.0,30.10,North,-999,0.0,0.0,85,0.00,,,-99.99,,2013-03-04 12:32:00,
2013-03-04 04:42:00,56.0,52.0,30.10,North,-999,0.0,0.0,85,0.00,,,-99.99,,2013-03-04 12:42:00,
2013-03-04 04:51:00,56.0,52.0,30.11,SE,140,4.0,5.0,85,0.00,,,-99.99,,2013-03-04 12:51:00,
2013-03-04 05:21:00,56.0,52.0,30.11,SE,140,4.0,5.0,85,0.00,,,-99.99,,2013-03-04 13:21:00,
2013-03-04 05:32:00,56.0,52.0,30.11,SE,140,4.0,5.0,85,0.00,,,-99.99,,2013-03-04 13:32:00,
2013-03-04 05:41:00,56.0,52.0,30.11,SE,140,4.0,5.0,85,0.00,,,-99.99,,2013-03-04 13:41:00,
2013-03-04 05:51:00,56.0,52.0,30.12,North,0,0.0,5.0,85,0.00,,,-99.99,,2013-03-04 13:51:00,
2013-03-04 06:22:00,56.0,52.0,30.12,North,0,0.0,5.0,85,0.00,,,-99.99,,2013-03-04 14:22:00,
2013-03-04 06:32:00,56.0,52.0,30.12,North,0,0.0,5.0,85,0.00,,,-99.99,,2013-03-04 14:32:00,
2013-03-04 06:41:00,56.0,52.0,30.12,North,0,0.0,5.0,85,0.00,,,-99.99,,2013-03-04 14:41:00,
2013-03-04 06:51:00,56.0,51.0,30.14,SE,130,5.0,7.0,84,0.00,,,-99.99,,2013-03-04 14:51:00,
2013-03-04 07:21:00,56.0,51.0,30.14,SE,130,5.0,7.0,84,0.00,,,-99.99,,2013-03-04 15:21:00,
2013-03-04 07:32:00,56.0,51.0,30.14,SE,130,5.0,7.0,84,0.00,,,-99.99,,2013-03-04 15:32:00,
2013-03-04 07:42:00,56.0,51.0,30.14,SE,130,5.0,7.0,84,0.00,,,-99.99,,2013-03-04 15:42:00,
2013-03-04 07:51:00,56.0,51.0,30.16,SSE,150,9.0,11.0,84,0.00,,,-99.99,,2013-03-04 15:51:00,
2013-03-04 08:21:00,56.0,51.0,30.16,SSE,150,9.0,11.0,84,0.00,,,-99.99,,2013-03-04 16:21:00,
2013-03-04 08:31:00,56.0,51.0,30.16,SSE,150,9.0,11.0,84,0.00,,,-99.99,,2013-03-04 16:31:00,
2013-03-04 08:42:00,56.0,51.0,30.16,SSE,150,9.0,11.0,84,0.00,,,-99.99,,2013-03-04 16:42:00,
2013-03-04 08:51:00,56.0,52.0,30.18,SSE,160,8.0,11.0,87,0.00,,,-99.99,,2013-03-04 16:51:00,
2013-03-04 09:22:00,56.0,52.0,30.18,SSE,160,8.0,11.0,87,0.00,,,-99.99,,2013-03-04 17:22:00,
2013-03-04 09:32:00,56.0,52.0,30.18,SSE,160,8.0,11.0,87,0.00,,,-99.99,,2013-03-04 17:32:00,
2013-03-04 09:42:00,56.0,52.0,30.18,SSE,160,8.0,11.0,87,0.00,,,-99.99,,2013-03-04 17:42:00,
2013-03-04 09:51:00,57.0,53.0,30.18,SSE,160,4.0,6.0,85,0.00,,,-99.99,,2013-03-04 17:51:00,
2013-03-04 10:21:00,57.0,53.0,30.18,SSE,160,4.0,6.0,85,0.00,,,-99.99,,2013-03-04 18:21:00,
2013-03-04 10:32:00,57.0,53.0,30.18,SSE,160,4.0,6.0,85,0.00,,,-99.99,,2013-03-04 18:32:00,
2013-03-04 10:42:00,57.0,53.0,30.18,SSE,160,4.0,6.0,85,0.00,,,-99.99,,2013-03-04 18:42:00,
2013-03-04 10:51:00,57.0,51.0,30.16,South,180,13.0,19.0,79,0.00,,,-99.99,,2013-03-04 18:51:00,
2013-03-04 11:21:00,57.0,51.0,30.16,South,180,13.0,19.0,79,0.00,,,-99.99,,2013-03-04 19:21:00,
2013-03-04 11:32:00,57.0,51.0,30.16,South,180,13.0,19.0,79,0.00,,,-99.99,,2013-03-04 19:32:00,
2013-03-04 11:42:00,57.0,51.0,30.16,South,180,13.0,19.0,79,0.00,,,-99.99,,2013-03-04 19:42:00,
2013-03-04 11:51:00,58.0,52.0,30.16,South,190,9.0,14.0,80,0.00,,,-99.99,,2013-03-04 19:51:00,
2013-03-04 12:21:00,58.0,52.0,30.16,South,190,9.0,14.0,80,0.00,,,-99.99,,2013-03-04 20:21:00,
2013-03-04 12:32:00,58.0,52.0,30.16,South,190,9.0,14.0,80,0.00,,,-99.99,,2013-03-04 20:32:00,
2013-03-04 12:42:00,58.0,52.0,30.16,South,190,9.0,14.0,80,0.00,,,-99.99,,2013-03-04 20:42:00,
2013-03-04 12:51:00,57.0,52.0,30.15,WSW,250,11.0,15.0,82,0.00,,,-99.99,,2013-03-04 20:51:00,
2013-03-04 13:21:00,57.0,52.0,30.15,WSW,250,11.0,15.0,82,0.00,,,-99.99,,2013-03-04 21:21:00,
2013-03-04 13:32:00,57.0,52.0,30.15,WSW,250,11.0,15.0,82,0.00,,,-99.99,,2013-03-04 21:32:00,
2013-03-04 13:42:00,57.0,52.0,30.15,WSW,250,11.0,15.0,82,0.00,,,-99.99,,2013-03-04 21:42:00,
2013-03-04 13:51:00,58.0,52.0,30.12,West,260,6.0,10.0,81,0.00,,,-99.99,,2013-03-04 21:51:00,
2013-03-04 14:22:00,58.0,52.0,30.12,West,260,6.0,10.0,81,0.00,,,-99.99,,2013-03-04 22:22:00,
2013-03-04 14:32:00,58.0,52.0,30.12,West,260,6.0,10.0,81,0.00,,,-99.99,,2013-03-04 22:32:00,
2013-03-04 14:42:00,58.0,52.0,30.12,West,260,6.0,10.0,81,0.00,,,-99.99,,2013-03-04 22:42:00,
2013-03-04 14:51:00,58.0,53.0,30.12,WSW,250,7.0,9.0,82,0.00,,,-99.99,,2013-03-04 22:51:00,
2013-03-04 15:21:00,58.0,53.0,30.12,WSW,250,7.0,9.0,82,0.00,,,-99.99,,2013-03-04 23:21:00,
2013-03-04 15:32:00,58.0,53.0,30.12,WSW,250,7.0,9.0,82,0.00,,,-99.99,,2013-03-04 23:32:00,
2013-03-04 15:42:00,58.0,53.0,30.12,WSW,250,7.0,9.0,82,0.00,,,-99.99,,2013-03-04 23:42:00,
2013-03-04 15:51:00,58.0,53.0,30.11,West,260,11.0,12.0,83,0.00,,,-99.99,,2013-03-04 23:51:00,
2013-03-04 16:21:00,58.0,53.0,30.11,West,260,11.0,12.0,83,0.00,,,-99.99,,2013-03-05 00:21:00,
2013-03-04 16:32:00,58.0,53.0,30.11,West,260,11.0,12.0,83,0.00,,,-99.99,,2013-03-05 00:32:00,
2013-03-04 16:42:00,58.0,53.0,30.11,West,260,11.0,12.0,83,0.00,,,-99.99,,2013-03-05 00:42:00,
2013-03-04 16:51:00,58.0,53.0,30.11,WSW,250,10.0,11.0,84,0.00,,,-99.99,,2013-03-05 00:51:00,
2013-03-04 17:21:00,58.0,53.0,30.11,WSW,250,10.0,11.0,84,0.00,,,-99.99,,2013-03-05 01:21:00,
2013-03-04 17:32:00,58.0,53.0,30.11,WSW,250,10.0,11.0,84,0.00,,,-99.99,,2013-03-05 01:32:00,
2013-03-04 17:41:00,58.0,53.0,30.11,WSW,250,10.0,11.0,84,0.00,,,-99.99,,2013-03-05 01:41:00,
2013-03-04 17:51:00,57.0,53.0,30.13,WNW,290,10.0,11.0,87,0.00,,,-99.99,,2013-03-05 01:51:00,
2013-03-04 18:21:00,57.0,53.0,30.13,WNW,290,10.0,11.0,87,0.00,,,-99.99,,2013-03-05 02:21:00,
2013-03-04 18:32:00,57.0,53.0,30.13,WNW,290,10.0,11.0,87,0.00,,,-99.99,,2013-03-05 02:32:00,
2013-03-04 18:41:00,57.0,53.0,30.13,WNW,290,10.0,11.0,87,0.00,,,-99.99,,2013-03-05 02:41:00,
2013-03-04 18:51:00,56.0,52.0,30.16,West,260,9.0,12.0,87,0.00,,,-99.99,,2013-03-05 02:51:00,
2013-03-04 19:22:00,56.0,52.0,30.16,West,260,9.0,12.0,87,0.00,,,-99.99,,2013-03-05 03:22:00,
2013-03-04 19:32:00,56.0,52.0,30.16,West,260,9.0,12.0,87,0.00,,,-99.99,,2013-03-05 03:32:00,
2013-03-04 19:41:00,56.0,52.0,30.16,West,260,9.0,12.0,87,0.00,,,-99.99,,2013-03-05 03:41:00,
2013-03-04 19:51:00,56.0,52.0,30.16,North,0,0.0,4.0,85,0.00,,,-99.99,,2013-03-05 03:51:00,
2013-03-04 20:21:00,56.0,52.0,30.16,North,0,0.0,4.0,85,0.00,,,-99.99,,2013-03-05 04:21:00,
2013-03-04 20:32:00,56.0,52.0,30.16,North,0,0.0,4.0,85,0.00,,,-99.99,,2013-03-05 04:32:00,
2013-03-04 20:42:00,56.0,52.0,30.16,North,0,0.0,4.0,85,0.00,,,-99.99,,2013-03-05 04:42:00,
2013-03-04 20:51:00,57.0,52.0,30.17,NNE,20,2.0,7.0,84,0.00,,,-99.99,,2013-03-05 04:51:00,
2013-03-04 21:22:00,57.0,52.0,30.17,NNE,20,2.0,7.0,84,0.00,,,-99.99,,2013-03-05 05:22:00,
2013-03-04 21:31:00,57.0,52.0,30.17,NNE,20,2.0,7.0,84,0.00,,,-99.99,,2013-03-05 05:31:00,
2013-03-04 21:42:00,57.0,52.0,30.17,NNE,20,2.0,7.0,84,0.00,,,-99.99,,2013-03-05 05:42:00,
2013-03-04 21:51:00,57.0,52.0,30.17,North,0,0.0,8.0,84,0.00,,,-99.99,,2013-03-05 05:51:00,
2013-03-04 22:22:00,57.0,52.0,30.17,North,0,0.0,8.0,84,0.00,,,-99.99,,2013-03-05 06:22:00,
2013-03-04 22:31:00,57.0,52.0,30.17,North,0,0.0,8.0,84,0.00,,,-99.99,,2013-03-05 06:31:00,
2013-03-04 22:41:00,57.0,52.0,30.17,North,0,0.0,8.0,84,0.00,,,-99.99,,2013-03-05 06:41:00,
2013-03-04 22:51:00,57.0,52.0,30.16,North,0,0.0,1.0,84,0.00,,,-99.99,,2013-03-05 06:51:00,
2013-03-04 23:21:00,57.0,52.0,30.16,North,0,0.0,1.0,84,0.00,,,-99.99,,2013-03-05 07:21:00,
2013-03-04 23:31:00,57.0,52.0,30.16,North,0,0.0,1.0,84,0.00,,,-99.99,,2013-03-05 07:31:00,
2013-03-04 23:41:00,57.0,52.0,30.16,North,0,0.0,1.0,84,0.00,,,-99.99,,2013-03-05 07:41:00,